This is the latest recevied weather packets stored in our database for station/object PE1RXF-13. If no packets are shown the sender has not sent any weather packets the latest 10 day(s).
| Time | Temp. | Humidity | Pressure | Rain* | Wind** | Luminosity | Snow |
|---|---|---|---|---|---|---|---|
| 1777869855 | 11.67° C | 99% | 1011.4 hPa | 0 mm | - | 2 W/m² | - |
| 1777864455 | 11.67° C | 99% | 1011.2 hPa | 0 mm | - | 0 W/m² | - |
| 1777860856 | 12.22° C | 99% | 1010.9 hPa | 0 mm | - | 0 W/m² | - |
| 1777859056 | 12.78° C | 99% | 1010.8 hPa | 0 mm | - | 0 W/m² | - |
| 1777855456 | 12.78° C | 99% | 1010.5 hPa | 0 mm | - | 0 W/m² | - |
| 1777851855 | 12.78° C | 99% | 1010.4 hPa | 0 mm | - | 0 W/m² | - |
| 1777850055 | 12.78° C | 99% | 1010.4 hPa | 0 mm | - | 0 W/m² | - |
| 1777846455 | 12.78° C | 99% | 1010.2 hPa | 0 mm | - | 0 W/m² | - |
| 1777844655 | 13.33° C | 99% | 1010.1 hPa | 0 mm | - | 0 W/m² | - |
| 1777842856 | 13.33° C | 99% | 1010.1 hPa | 0.51 mm | - | 0 W/m² | - |
| 1777841055 | 13.89° C | 99% | 1010 hPa | 0.51 mm | - | 0 W/m² | - |
| 1777839255 | 13.89° C | 99% | 1010 hPa | 0.76 mm | - | 0 W/m² | - |
| 1777837455 | 14.44° C | 99% | 1009.9 hPa | 0.76 mm | - | 0 W/m² | - |
| 1777835655 | 14.44° C | 99% | 1009.6 hPa | 0 mm | - | 0 W/m² | - |
| 1777833857 | 15° C | 99% | 1009.4 hPa | 0 mm | - | 1 W/m² | - |
| 1777832055 | 15° C | 99% | 1009 hPa | 0.76 mm | - | 9 W/m² | - |
| 1777830255 | 15° C | 99% | 1009 hPa | 0.76 mm | - | 22 W/m² | - |
| 1777828455 | 15° C | 99% | 1008.9 hPa | 1.52 mm | - | 12 W/m² | - |
| 1777826655 | 15° C | 99% | 1009.1 hPa | 1.52 mm | - | 16 W/m² | - |
| 1777824855 | 15.56° C | 99% | 1008.9 hPa | 2.03 mm | - | 25 W/m² | - |
| 1777817655 | 18.89° C | 99% | 1008.4 hPa | 0 mm | - | 68 W/m² | - |
| 1777812256 | 23.89° C | 54% | 1008.3 hPa | 0 mm | - | 89 W/m² | - |
| 1777808656 | 24.44° C | 49% | 1008.7 hPa | 0 mm | - | 209 W/m² | - |
| 1777803256 | 25° C | 45% | 1009.3 hPa | 0 mm | - | 198 W/m² | - |
| 1777801455 | 23.89° C | 49% | 1009.7 hPa | 0 mm | - | 251 W/m² | - |
* Rain latest hour (hover to see other rain measurements)
** Current wind speed in m/s (hover to see current wind gust speed)